TimeCST,TemperatureF,Dew PointF,Humidity,Sea Level PressureIn,VisibilityMPH,Wind Direction,Wind SpeedMPH,Gust SpeedMPH,PrecipitationIn,Events,Conditions,WindDirDegrees,DateUTC
12:53 AM,37.9,25.0,60,30.35,10.0,Calm,Calm,-,N/A,,Clear,0,2013-01-07 06:53:00
1:53 AM,34.0,25.0,70,30.35,10.0,Calm,Calm,-,N/A,,Clear,0,2013-01-07 07:53:00
2:53 AM,34.0,26.1,73,30.35,10.0,East,3.5,-,N/A,,Clear,80,2013-01-07 08:53:00
3:53 AM,32.0,25.0,75,30.34,10.0,ENE,4.6,-,N/A,,Clear,60,2013-01-07 09:53:00
4:53 AM,30.9,26.1,82,30.33,10.0,Calm,Calm,-,N/A,,Clear,0,2013-01-07 10:53:00
5:53 AM,30.0,26.1,85,30.34,10.0,Calm,Calm,-,N/A,,Clear,0,2013-01-07 11:53:00
6:53 AM,27.0,25.0,92,30.38,10.0,Calm,Calm,-,N/A,,Clear,0,2013-01-07 12:53:00
7:53 AM,28.9,26.1,89,30.39,10.0,Calm,Calm,-,N/A,,Clear,0,2013-01-07 13:53:00
8:53 AM,34.0,28.9,82,30.40,10.0,ENE,4.6,-,N/A,,Clear,70,2013-01-07 14:53:00
9:53 AM,37.9,28.9,70,30.42,10.0,East,6.9,-,N/A,,Clear,90,2013-01-07 15:53:00
10:53 AM,42.1,25.0,51,30.40,10.0,East,5.8,-,N/A,,Clear,80,2013-01-07 16:53:00
11:53 AM,46.0,24.1,42,30.35,10.0,ENE,6.9,-,N/A,,Clear,70,2013-01-07 17:53:00
12:53 PM,48.0,25.0,41,30.30,10.0,Variable,3.5,-,N/A,,Clear,0,2013-01-07 18:53:00
1:53 PM,50.0,26.1,39,30.26,10.0,Variable,5.8,-,N/A,,Clear,0,2013-01-07 19:53:00
2:53 PM,51.1,23.0,33,30.25,10.0,East,5.8,-,N/A,,Clear,100,2013-01-07 20:53:00
3:53 PM,51.1,24.1,35,30.23,10.0,SSE,5.8,-,N/A,,Clear,150,2013-01-07 21:53:00
5:53 PM,44.1,28.9,55,30.21,10.0,Calm,Calm,-,N/A,,Clear,0,2013-01-07 23:53:00
6:53 PM,39.0,30.0,70,30.21,10.0,Calm,Calm,-,N/A,,Clear,0,2013-01-08 00:53:00
7:53 PM,39.9,28.9,65,30.21,10.0,Calm,Calm,-,N/A,,Clear,0,2013-01-08 01:53:00
8:53 PM,42.1,27.0,55,30.21,10.0,Calm,Calm,-,N/A,,Clear,0,2013-01-08 02:53:00
9:53 PM,37.9,30.0,73,30.21,10.0,Calm,Calm,-,N/A,,Clear,0,2013-01-08 03:53:00
10:53 PM,39.9,30.0,68,30.18,10.0,East,4.6,-,N/A,,Clear,100,2013-01-08 04:53:00
11:53 PM,36.0,30.0,79,30.17,10.0,East,4.6,-,N/A,,Partly Cloudy,80,2013-01-08 05:53:00